Location: Rounton
(54.4000°N, 1.3500°W)
Time: 23:54:32
(UTC+01:00)

Vanguard 1 - Pass Details

Date: 22 February 2024
Orbit: 653 x 3825 km, 34.2° (Epoch: 22 April)

Event Time Altitude Azimuth Distance (km) Brightness Sun altitude
Rises 20:40:38 0° 224° (SW) 5,968 14.3 -28.4°
Reaches altitude 10° 20:44:31 10° 216° (SW) 5,354 13.9 -28.9°
Maximum altitude 20:59:24 36° 158° (SSE) 4,639 13.0 -30.8°
Enters shadow 21:01:23 36° 149° (SSE) 4,757 13.0 -31.1°
Drops below altitude 10° 21:18:45 10° 103° (ESE) 6,923 - -33.2°
Sets 21:24:41 0° 96° (E) 7,851 - -33.9°
